Location: Chervonnoye
(48.6000°N, 34.4000°E)
Time: 01:09:48
(UTC+00:00)

NOAA 15 - Pass Details

Date: 06 December 2021
Orbit: 797 x 812 km, 98.7° (Epoch: 17 January)

Event Time Altitude Azimuth Distance (km) Brightness Sun altitude
Rises 14:57:30 0° 120° (ESE) 3,319 7.4 -11.1°
Reaches altitude 10° 15:00:22 10° 104° (ESE) 2,390 6.6 -11.5°
Maximum altitude 15:04:10 21° 58° (ENE) 1,761 5.8 -12.1°
Drops below altitude 10° 15:07:59 10° 11° (NNE) 2,393 6.8 -12.7°
Sets 15:10:51 0° 356° (N) 3,326 7.6 -13.1°
